Powrót do katalogu

STARLINK-3302

AktywnyŁącznośćVLEO
NORAD 50842·PAYLOAD·🇺🇸 United States

Wystrzelony Jan 6, 2022 z Cape Canaveral Space Force Station

Loading…

Następne Przeloty (najbliższe 24 godziny)

TLE

ŚwieżeSource: CelesTrak SupGP

Epoka: Sep 14, 2026, 21:17 UTC

1 50842C 22001AR  26257.88729167  .00036219  00000+0  11648-2 0  2573
2 50842  53.1596  35.9208 0001075  78.4781  40.2111 15.31683309    14

Śledź STARLINK-3302 w czasie rzeczywistym z AllMySat

Download on the App Store